Location: ??
(35.6441°N, 139.4986°E)
Time: 05:56:14
(UTC+00:00)

Daily predictions for brighter satellites

Satellite Brightness Start Highest point End
(mag) Time Altitude Azimuth Time Altitude Azimuth Time Altitude Azimuth
CENTAUR R/B 2.4 10:22:07 10° SSW 10:27:39 82° ESE 10:34:15 10° NNE
Cosmos 2263 Rocket 3.2 10:24:46 10° N 10:29:53 33° ENE 10:34:57 10° SE
Meteor 1-15 Rocket 4.4 10:24:31 10° N 10:30:28 80° E 10:36:21 10° SSE
Cosmos 2297 Rocket 4.2 10:29:06 10° NW 10:33:41 26° WSW 10:38:16 10° SSW
Cosmos 407 Rocket 3.7 10:29:11 10° N 10:34:25 61° ENE 10:39:35 10° SSE
SJ-6B 2.9 10:30:21 10° SSE 10:34:26 76° ENE 10:38:30 10° N
Cosmos 1470 4.4 10:32:45 10° NNE 10:35:37 19° ENE 10:38:28 10° ESE
OBJECT-B 0.7 10:33:07 10° SSE 10:36:18 89° SW 10:39:31 10° N
Cosmos 2227 Rocket 3.8 10:32:31 10° NW 10:37:30 33° WSW 10:42:28 10° SSW
Cosmos 2285 Rocket 4.2 10:32:58 10° S 10:39:08 52° ESE 10:45:20 10° NNE
Sich 1 Rocket 3.7 10:35:55 10° N 10:40:19 78° W 10:44:41 10° S
ASTRO E2 4.4 10:38:56 10° S 10:41:12 15° SSE 10:43:17 11° ESE
Cosmos 1371 Rocket 4.3 10:36:47 10° SSW 10:41:56 74° WNW 10:47:07 10° NNE
Cosmos 1420 Rocket 4.0 10:37:57 10° S 10:43:01 61° ESE 10:48:08 10° NNE
Cosmos 1190 Rocket 4.2 10:41:55 10° N 10:47:10 59° ENE 10:52:23 10° SSE
Cosmos 1315 Rocket 4.2 10:45:57 10° NNE 10:49:18 24° ENE 10:52:02 13° ESE
Cosmos 1805 4.4 10:50:10 10° NNW 10:53:52 44° W 10:57:34 10° SSW
Cosmos 1726 3.2 10:51:08 10° NNE 10:54:17 27° ENE 10:56:35 15° SE
MOS 1 4.3 10:53:48 10° SSE 10:59:29 83° ENE 11:05:13 10° NNW
Cosmos 1339 Rocket 4.5 10:54:13 10° S 11:00:26 81° E 11:06:35 10° N
SPOT 3 Rocket 4.2 10:57:15 13° SE 11:01:23 40° ENE 11:06:11 10° N
SL-24 DEB 4.4 10:59:23 10° S 11:04:05 82° W 11:08:52 10° N
Resurs 1-3 3.6 11:02:28 10° SSE 11:06:51 86° W 11:11:16 10° NNW
Okean 1 Rocket 3.4 11:02:54 10° N 11:07:08 47° E 11:10:15 17° SSE
Okean 2 3.3 11:03:32 10° S 11:07:38 85° E 11:11:43 10° N
Cosmos 1758 4.4 11:04:42 10° NNE 11:08:10 28° ENE 11:10:04 19° ESE
Lacrosse 5 rocket 1.8 11:07:23 10° S 11:10:44 30° SE 11:13:59 10° ENE
Cosmos 1378 Rocket 3.7 11:06:26 10° SSW 11:10:45 74° W 11:15:06 10° N
Cosmos 1707 2.7 11:09:03 11° S 11:12:45 61° E 11:16:36 10° NNE
FALCON 9 DEB 3.2 11:12:08 10° SW 11:15:33 77° NW 11:18:58 10° NE
Ariane Rocket 3.2 11:12:01 10° S 11:17:04 71° WSW 11:22:11 10° NNW
SL-16 R/B 2.3 11:12:39 10° SSW 11:18:19 82° WNW 11:24:01 10° NNE
Cosmos 2360 Rocket 2.6 11:13:54 10° S 11:19:08 41° ESE 11:24:25 10° NE
Cosmos 676 Rocket 4.1 11:14:40 10° NNW 11:20:00 70° ENE 11:23:43 20° SSE
Cosmos 1954 Rocket 4.0 11:15:12 10° NNW 11:20:32 73° ENE 11:24:15 20° SSE
Cosmos 2322 Rocket 2.1 11:15:03 10° SSW 11:20:43 80° ESE 11:26:27 10° NNE
Delta 128 4.5 11:26:57 10° WSW 11:30:55 31° S 11:32:15 26° SSE
Cosmos 2227 4.2 11:25:36 10° NNW 11:31:15 87° WSW 11:35:01 22° SSE
Cosmos 292 Rocket 4.4 11:28:36 10° SSW 11:33:21 58° WNW 11:38:08 10° N
Cosmos 1953 3.6 11:32:10 10° NNE 11:35:33 25° ENE 11:36:17 24° E
USA 81 4.1 11:30:50 10° N 11:36:04 65° E 11:39:09 25° SSE
COSMOS 2428 4.3 11:36:40 16° E 11:36:40 16° E 11:39:45 10° ENE
Cosmos 1626 3.5 11:37:26 22° E 11:37:26 22° E 11:40:06 10° NE
ATLAS 3B R/B 3.1 11:34:28 18° SSE 11:38:34 36° ESE 11:44:30 10° NE
Cosmos 1110 Rocket 4.2 11:36:10 22° SSE 11:39:12 48° ESE 11:44:11 10° NNE
Cosmos 2237 4.1 11:35:37 10° SSW 11:41:18 84° ESE 11:47:01 10° NNE
Cosmos 1025 Rocket 3.9 11:41:38 29° ESE 11:42:19 31° E 11:46:11 10° NNE
IGS 5A 3.8 11:40:36 21° S 11:43:14 60° W 11:47:21 10° NNW
Resurs 01 Rocket 2.1 11:41:42 19° S 11:44:41 56° W 11:49:02 10° NNW
CARTOSAT-1 4.2 11:44:55 32° ESE 11:46:09 41° ENE 11:50:13 10° N
SPOT 5 3.9 11:46:10 26° ESE 11:47:57 33° ENE 11:52:25 10° N
USA 245 3.9 11:46:43 34° SSE 11:48:38 68° ENE 11:54:00 10° N
Cosmos 2100 Rocket 4.3 11:43:44 10° N 11:49:53 49° E 11:52:41 30° SE
KORONAS-FOTON 3.6 11:51:39 43° S 11:52:47 77° E 11:56:35 10° N
Cosmos 1975 Rocket 2.9 11:52:16 29° S 11:54:29 90° W 11:58:52 10° N
